sat.trackr.live / text

‹ back to catalog

YUNYAO-1 48

NORAD 63349 · 2025-059F

PAYLOAD ACTIVE UNKNOWN

§ Identity

Operator
Country
PRC
Launch date
2025-03-21
Launch site
JSC
Launch vehicle
Mass (kg)
RCS (m²)

External: N2YO · Heavens-Above · Gunter

§ Orbital elements

Epoch: 2026-09-21T22:12:03.660768Z

Period
95.25 min
Inclination
97.6132°
Eccentricity
0.0014995
Mean motion
15.11737139 rev/d
Perigee alt
520.5 km
Apogee alt
541.3 km
Semi-major
6,909.0 km
B*
1.4533e-4
RAAN
86.0227°
Arg perigee
182.6075°
Mean anomaly
177.5080°
Rev number
8,291

§ Raw data

YUNYAO-1 481 63349U 25059F   26264.92504237  .00002417  00000+0  14533-3 0  99902 63349  97.6132  86.0227 0014995 182.6075 177.5080 15.11737139 82913

JSON: /api/v1/satellites/63349 · /tle

For live sub-satellite position, see the globe view (requires WebGL).

§ Visibility from observer

Set your observer location to see the next 7 days of passes ≥ 10°. The values pass through the URL so the page stays shareable.

No JS? Fill the form by hand. The geolocation button needs JavaScript.